Simultaneous Nadir Overpasses (SNOs) Predictions

Prediction of SNOs between NOAA-20 and METOP-C Satellite Orbit:

Table of predicted SNOs for the next 14.0 days since TLE Epoch: 1/6/2024
Index Date (NOAA-20) Time (NOAA-20) Lat,Lon (NOAA-20) SZA (NOAA-20 ) Date (METOP-C) Time (METOP-C) Lat,Lon (METOP-C) SZA (METOP-C ) Distance(km) Time Diff (sec)
1 01/12/2024 13:07:00 73.57, -26.66 95.48 01/12/2024 13:08:06 73.49, -23.70 95.25 93.67 66
2 01/12/2024 13:57:41 -73.42, 141.00 84.70 01/12/2024 13:58:49 -73.39, 143.40 84.85 76.27 68
3 01/12/2024 14:48:24 73.28, -51.37 95.15 01/12/2024 14:49:33 73.22, -49.65 94.99 55.47 69
4 01/12/2024 15:39:05 -73.13, 116.28 85.03 01/12/2024 15:40:17 -73.07, 117.35 85.15 35.29 72
5 01/12/2024 16:29:48 72.99, -76.10 94.81 01/12/2024 16:31:01 72.90, -75.69 94.69 16.68 73
6 01/12/2024 17:20:29 -72.83, 91.54 85.36 01/12/2024 17:21:43 -72.85, 91.54 85.36 1.82 74
7 01/12/2024 18:11:15 72.84,-101.17 94.65 01/12/2024 18:12:24 72.82,-101.18 94.62 1.91 69
8 01/12/2024 19:01:59 -72.84, 66.15 85.36 01/12/2024 19:03:05 -72.83, 66.16 85.39 1.40 66
9 01/12/2024 19:52:45 72.85,-126.56 94.64 01/12/2024 19:53:45 72.85,-126.46 94.63 3.36 60
10 01/12/2024 20:43:28 -72.80, 40.86 85.42 01/12/2024 20:44:27 -72.81, 40.77 85.42 3.08 59
11 01/12/2024 21:34:14 72.81,-151.84 94.58 01/12/2024 21:35:07 72.83,-151.84 94.60 3.03 53
12 01/12/2024 22:24:58 -72.81, 15.47 85.43 01/12/2024 22:25:49 -72.79, 15.39 85.45 3.35 51
13 01/12/2024 23:15:44 72.81,-177.23 94.58 01/12/2024 23:16:29 72.81,-177.23 94.57 0.26 45
14 01/13/2024 00:06:28 -72.81, -9.92 85.43 01/13/2024 00:07:10 -72.82, -9.89 85.44 1.10 42
15 01/13/2024 00:57:14 72.82, 157.38 94.58 01/13/2024 00:57:51 72.79, 157.39 94.54 3.37 37
16 01/13/2024 01:47:58 -72.82, -35.31 85.43 01/13/2024 01:48:32 -72.80, -35.27 85.47 2.99 34
17 01/13/2024 02:38:43 72.78, 132.09 94.52 01/13/2024 02:39:13 72.77, 132.00 94.51 3.01 30
18 01/13/2024 03:29:27 -72.78, -60.59 85.49 01/13/2024 03:29:54 -72.78, -60.65 85.50 2.05 27
19 01/13/2024 04:20:13 72.79, 106.70 94.52 01/13/2024 04:20:34 72.80, 106.73 94.53 1.75 21
20 01/13/2024 05:10:57 -72.79, -85.98 85.49 01/13/2024 05:11:15 -72.80, -85.93 85.48 2.74 18
21 01/13/2024 06:01:43 72.79, 81.31 94.51 01/13/2024 06:01:56 72.78, 81.34 94.49 1.92 13
22 01/13/2024 06:52:27 -72.79,-111.37 85.50 01/13/2024 06:52:37 -72.78,-111.32 85.51 2.09 10
23 01/13/2024 07:43:12 72.75, 56.03 94.46 01/13/2024 07:43:18 72.76, 55.96 94.46 2.41 6
24 01/13/2024 08:33:56 -72.75,-136.66 85.56 01/13/2024 08:33:59 -72.76,-136.70 85.54 2.04 3
25 01/13/2024 09:24:42 72.76, 30.64 94.45 01/13/2024 09:24:40 72.74, 30.58 94.43 3.16 2
26 01/13/2024 10:15:26 -72.76,-162.05 85.56 01/13/2024 10:15:21 -72.74,-162.08 85.57 2.05 5
27 01/13/2024 11:06:12 72.76, 5.25 94.45 01/13/2024 11:06:01 72.77, 5.30 94.45 1.61 11
28 01/13/2024 11:56:56 -72.76, 172.56 85.56 01/13/2024 11:56:42 -72.77, 172.64 85.56 2.61 14
29 01/13/2024 12:47:41 72.72, -20.04 94.39 01/13/2024 12:47:23 72.74, -20.09 94.42 3.00 18
30 01/13/2024 13:38:25 -72.72, 147.28 85.62 01/13/2024 13:38:04 -72.75, 147.26 85.59 3.32 21
31 01/13/2024 14:29:11 72.73, -45.43 94.39 01/13/2024 14:28:45 72.72, -45.47 94.39 1.62 26
32 01/13/2024 15:19:55 -72.73, 121.89 85.62 01/13/2024 15:19:26 -72.73, 121.87 85.62 0.54 29
33 01/13/2024 16:10:41 72.74, -70.82 94.38 01/13/2024 16:10:06 72.75, -70.75 94.40 2.83 35
34 01/13/2024 17:01:25 -72.74, 96.50 85.63 01/13/2024 17:00:48 -72.71, 96.49 85.65 3.12 37
35 01/13/2024 17:52:11 72.74, -96.21 94.38 01/13/2024 17:51:28 72.73, -96.13 94.37 2.83 43
36 01/13/2024 18:42:55 -72.74, 71.11 85.63 01/13/2024 18:42:09 -72.74, 71.21 85.63 3.41 46
37 01/13/2024 19:33:40 72.70,-121.49 94.32 01/13/2024 19:32:50 72.71,-121.52 94.34 1.29 50
38 01/13/2024 20:24:24 -72.70, 45.82 85.69 01/13/2024 20:23:31 -72.72, 45.83 85.66 1.81 53
39 01/13/2024 21:15:10 72.71,-146.88 94.32 01/13/2024 21:14:12 72.69,-146.90 94.31 2.32 58
40 01/13/2024 22:05:54 -72.71, 20.44 85.69 01/13/2024 22:04:53 -72.70, 20.45 85.69 1.41 61
41 01/13/2024 22:56:40 72.72,-172.27 94.31 01/13/2024 22:55:33 72.72,-172.18 94.33 3.05 67
42 01/13/2024 23:47:22 -72.67, -4.85 85.75 01/13/2024 23:46:14 -72.68, -4.94 85.72 3.09 68
43 01/14/2024 00:38:08 72.67, 162.44 94.26 01/14/2024 00:36:54 72.70, 162.44 94.30 2.66 74
44 01/14/2024 01:28:51 -72.62, -30.14 85.81 01/14/2024 01:27:37 -72.60, -30.42 85.80 9.80 74
45 01/14/2024 02:19:33 72.43, 137.57 93.98 01/14/2024 02:18:21 72.42, 136.54 94.04 34.63 72
46 01/14/2024 03:10:15 -72.33, -54.91 86.14 01/14/2024 03:09:04 -72.33, -56.31 86.06 47.28 71
47 01/14/2024 04:00:57 72.13, 112.78 93.64 01/14/2024 03:59:49 72.09, 110.56 93.74 76.09 68
48 01/14/2024 04:51:39 -72.03, -79.71 86.48 01/14/2024 04:50:32 -72.00, -82.29 86.36 88.51 67



Historial Predications of SNOs between NOAA-20 and METOP-C
